SWARM A

Last updated on Wed Nov 05 2025 00:03:34 GMT+0000 (Coordinated Universal Time)

1 39452U 13067B 25308.56208197 .00010318 00000+0 21573-3 0 9999 2 39452 87.3356 139.3122 0002692 85.4407 274.7159 15.45324893671491
UTC large
Height (km)
Speed (km/s)
/
Latitude / Longitude
Inclination (degrees)
Orbital Period (minutes)
Azimuth
Elevation
Range (km)
Doppler Factor

Next 0 passes for location: London (51.5072 / 0.1276)

Sorry there are no passes over London.